Home   Weather   Riverside   Past weeks

Flag for USA Past Weather in Riverside, California, USA — Yesterday and Last 2 Weeks

Now
72 °F

Broken clouds.


Feels Like: 77 °F
Forecast: 53 / 78 °F
Wind: 9 mph from Northwest

Location: Riverside Municipal Airport

Current Time: Apr 25, 2017 at 1:37:15 pm

Latest Report: Apr 25, 2017 at 12:53 pm


Visibility: 10 mi

Pressure: 29.87 "Hg

Humidity: 43%

Dew Point: 48 °F

Location of RiversideLocation

Past Weather in Riverside — Graph

°F

Riverside Temperature Yesterday

Maximum temperature yesterday: 72 °F (at 1:53 pm)
Minimum temperature yesterday: 57 °F (at 2:53 am)
Average temperature yesterday: 63 °F

High & Low Weather Summary for the Past Weeks

 TemperatureHumidityPressure
High95 °F (Apr 22, 2:53 pm)96% (Apr 14, 6:53 am)30.14 "Hg (Apr 14, 6:53 am)
Low48 °F (Apr 14, 4:53 am)9% (Apr 21, 2:53 pm)29.75 "Hg (Apr 23, 3:53 pm)
Average66 °F56%29.94 "Hg
* Reported Apr 10 11:53 am — Apr 25 11:53 am, Riverside, Weather by CustomWeather, © 2017

Note: Actual official high and low records may vary slightly from our data, if they occured in-between our weather recording intervals... More about our weather records

Advertising

Riverside Weather History for the Previous 24 Hours

Scroll right to see more
 ConditionsComfort  
Time TempWeatherWind HumidityBarometerVisibility
11:53 am
Tue, Apr 25
69 °FBroken clouds.8 mph47%29.87 "Hg10 mi
10:53 am66 °FSunny.N/A56%29.88 "Hg10 mi
10:11 am64 °FScattered clouds.6 mph61%29.91 "Hg10 mi
9:53 am64 °FPartly sunny.No wind63%29.87 "Hg10 mi
9:33 am63 °FPartly sunny.No wind70%29.90 "Hg10 mi
8:53 am60 °FSunny.3 mph75%29.86 "Hg10 mi
7:53 am57 °FSunny.No wind83%29.86 "Hg10 mi
6:53 am54 °FSunny.No wind90%29.83 "Hg10 mi
5:53 am54 °FPartly cloudy.3 mph90%29.81 "Hg10 mi
5:15 am55 °FPassing clouds.No wind87%29.86 "Hg10 mi
4:53 am54 °FClear.No wind90%29.81 "Hg10 mi
3:53 am55 °FClear.No wind90%29.81 "Hg10 mi
2:53 am56 °FPassing clouds.3 mph87%29.81 "Hg10 mi
1:53 am57 °FClear.3 mph81%29.83 "Hg10 mi
12:53 am58 °FPassing clouds.No wind78%29.83 "Hg10 mi
11:53 pm
Mon, Apr 24
58 °FClear.No wind75%29.83 "Hg10 mi
10:53 pm59 °FClear.3 mph72%29.82 "Hg10 mi
9:53 pm60 °FClear.3 mph69%29.83 "Hg10 mi
8:53 pm62 °FPassing clouds.7 mph70%29.83 "Hg10 mi
7:53 pm63 °FPassing clouds.10 mph70%29.82 "Hg10 mi
6:53 pm66 °FPartly sunny.13 mph63%29.81 "Hg10 mi
5:53 pm68 °FSunny.13 mph59%29.82 "Hg10 mi
4:53 pm71 °FPartly sunny.16 mph53%29.81 "Hg10 mi
3:53 pm72 °FPartly sunny.12 mph52%29.83 "Hg10 mi
2:53 pm71 °FPartly sunny.7 mph53%29.84 "Hg10 mi
1:53 pm72 °FSunny.8 mph48%29.88 "Hg10 mi
Weather by CustomWeather, © 2017

See weather overviewHow to use our weather pages